SCP
0 0 0 0 0 0 0 0 0 0 -0 -0 -0 -0 -0 -0 -0 -0 -0 -0 -0 -0 -0 -0 -0 -0 -0 0 0 0 0 0 0 0 0 0 0 0 0 0 0 0 0 0 0 0 0
0 0 0 0 0 0 0 0 0 0 0 -0 -0 -0 -0 -0 -0 -0 -0 -0 -0 -0 -0 -0 0 -0 0 0 0 0 0 0 0 0 0 0 0 0 0 0 0 0 -0 0 0 0 0
0 0 0 0 0 0 0 0 0 0 0 0 -0 -0 -0 -0 -0 -0 -0 -0 -0 -0 -0 -0 -0 -0 0 0 0 0 0 0 0 0 0 0 0 0 0 0 0 0 0 0 0 0 0
0 0 0 0 0 0 0 0 0 0 0 0 -0 -0 -0 -0 -0 -0 -0 -0 -0 0 0 -0 -0 0 0 0 0 0 0 0 0 0 0 0 0 0 0 0 0 0 0 0 0 0 0
0 0 0 0 0 0 0 0 0 0 0 0 -0 -0 -0 -0 -0 -0 -0 -0 0 0 0 0 0 0 0 0 0 0 0 0 0 0 0 0 0 0 0 0 0 0 0 0 0 0 0
0 0 0 0 0 0 0 0 0 0 0 0 0 -0 -0 -0 -0 -0 -0 -0 0 0 -0 0 -0 0 0 0 0 0 0 0 0 0 0 0 0 0 0 0 0 0 0 0 0 0 0
0 0 0 0 0 0 0 0 0 0 0 0 0 0 -0 -0 -0 -0 0 -0 -0 -0 -0 -0 0 0 0 0 0 0 0 0 0 0 0 0 0 0 0 0 0 0 0 0 0 0 -0
0 0 0 0 0 0 0 0 0 0 0 0 0 0 -0 -0 -0 -0 -0 -0 0 -0 0 0 0 0 0 0 0 0 0 0 0 0 0 0 0 0 0 0 0 0 0 0 0 0 0
0 0 0 0 0 0 0 0 0 0 0 0 0 0 0 -0 -0 0 0 0 0 0 -0 -0 0 0 0 0 0 0 0 0 0 0 0 0 0 0 0 0 0 0 0 0 0 0 0
0 0 0 0 0 0 0 0 0 0 0 0 0 0 0 0 0 0 0 0 0 0 0 -0 0 0 0 0 0 0 0 0 0 0 0 0 0 0 0 0 0 0 -0 0 0 0 0
0 0 0 0 0 0 0 0 0 0 0 0 0 0 0 0 0 0 0 0 0 -0 0 0 0 0 0 0 0 0 0 0 0 0 0 0 0 0 0 0 0 0 0 0 0 0 0
0 0 0 0 0 0 0 0 0 0 0 0 0 0 0 0 0 0 0 0 0 0 0 0 0 0 0 0 0 0 0 0 0 0 0 0 0 0 0 0 0 0 0 0 0 0 0
0 0 0 0 0 0 0 0 0 0 0 0 0 0 0 0 0 0 0 0 0 0 0 0 0 0 0 0 0 0 0 0 0 0 0 0 0 0 0 0 0 0 0 0 0 0 0
0 0 0 0 0 0 0 0 0 0 0 0 0 0 0 0 0 0 0 0 0 0 0 0 0 0 0 0 0 0 0 0 0 0 0 0 0 0 0 0 0 0 0 0 0 0 0
0 0 0 0 0 0 0 0 0 0 0 0 0 0 0 0 0 0 0 0 0 0 0 0 0 0 0 0 0 0 0 0 0 0 0 0 0 0 0 0 0 0 0 0 0 0 0
0 0 0 0 0 0 0 0 0 0 0 0 0 0 0 0 0 0 0 0 0 0 0 0 0 0 0 0 0 0 0 0 0 0 0 0 0 0 0 0 0 0 0 0 0 0 0
0 0 0 0 0 0 0 0 0 0 0 0 0 0 0 0 0 0 0 0 0 0 0 0 0 0 0 0 0 0 0 0 0 0 0 0 0 0 0 0 0 0 0 0 0 0 0
0 0 0 0 0 0 0 0 0 0 0 0 0 0 0 0 0 0 0 0 0 0 0 0 0 0 0 0 0 0 0 0 0 0 0 0 0 0 0 0 0 0 0 0 0 0 0
0 0 0 0 0 0 0 0 0 0 0 0 0 0 0 0 0 0 0 0 0 0 0 0 0 0 0 0 0 0 0 0 0 0 0 0 0 0 0 0 0 0 0 0 0 0 0
0 0 0 0 0 0 0 0 0 0 0 0 0 0 0 0 0 0 0 0 0 0 0 0 0 0 0 0 0 0 0 0 0 0 0 0 0 0 0 0 0 0 0 0 0 0 -0
0 0 0 0 0 0 0 0 0 0 0 0 0 0 0 0 0 0 0 0 0 0 0 0 0 0 0 0 0 0 0 0 0 0 0 0 0 0 0 0 0 0 -0 -0 -0 -0 0
0 0 0 0 0 0 0 0 0 0 0 0 0 0 0 0 0 0 0 0 0 0 0 0 0 0 0 0 0 0 0 0 0 0 0 0 0 0 0 0 0 0 0 0 -0 -0 -0
0 0 0 0 0 0 0 -0 0 0 0 0 0 0 0 0 0 0 0 0 0 0 0 0 0 0 0 0 0 0 0 0 0 0 0 0 0 0 0 0 0 0 0 0 0 0 0
0 0 0 0 0 0 0 0 -0 -0 0 0 0 0 0 0 0 0 0 0 0 0 0 0 0 0 0 0 0 0 0 0 0 0 0 0 0 0 0 0 0 0 0 0 0 0 0
0 0 0 0 0 0 0 0 0 -0 -0 0 0 0 0 0 0 0 0 0 0 0 0 0 0 0 0 0 0 0 0 0 0 0 0 0 0 0 0 0 0 0 0 0 0 0 0
0 0 0 0 0 0 0 0 0 0 0 0 0 0 0 0 0 0 0 0 0 0 0 0 0 0 0 0 0 0 0 0 0 0 0 0 0 0 0 0 0 0 0 0 0 0 0
0 0 0 0 0 0 0 0 0 0 0 0 0 0 0 0 0 0 0 0 0 0 0 0 0 0 0 0 0 0 0 0 0 0 0 0 0 0 0 0 0 0 0 0 0 0 0
0 0 0 0 0 0 0 0 0 0 0 0 0 0 0 0 0 0 0 0 0 0 0 0 0 0 0 0 0 0 0 0 0 0 0 0 0 0 0 0 0 0 0 0 0 0 0
0 0 0 0 0 0 0 0 0 0 0 0 0 0 0 0 0 0 0 0 0 0 0 0 0 0 0 0 0 0 0 0 0 0 0 0 0 0 0 0 0 0 0 0 0 0 0
Wind_Speed_500mb
10 9 11 12 13 11 9 8 8 9 11 13 14 17 18 19 20 19 15 12 10 8 9 8 7 4 5 4 9 4 9 14 14 14 17 18 15 12 15 15 15 18 16 23 27 28 31
15 11 12 13 14 14 11 9 7 9 11 12 14 16 18 21 20 15 15 12 11 9 10 12 6 6 3 5 3 4 9 12 12 13 15 14 12 15 18 19 16 19 27 30 24 21 25
18 16 15 15 15 16 15 11 9 9 11 13 13 14 19 22 19 15 16 13 9 9 12 14 9 4 6 6 2 6 12 11 16 12 14 10 10 13 21 19 10 23 20 21 3 12 20
15 20 18 15 14 16 19 15 12 10 11 12 15 16 20 22 14 17 14 6 6 11 11 13 12 4 3 7 4 8 10 12 15 10 11 8 9 12 11 20 20 15 14 16 18 8 7
17 17 21 21 18 16 20 23 16 15 12 11 13 16 20 22 15 17 8 4 8 10 12 9 7 6 7 4 4 12 12 12 13 9 8 7 6 11 15 18 21 13 25 24 15 4 10
26 23 22 27 26 22 20 24 25 19 15 14 11 14 20 21 15 15 5 8 9 7 9 4 8 10 5 4 10 7 9 15 8 12 15 9 11 18 6 19 19 30 30 25 23 19 23
31 32 30 27 32 30 27 24 26 24 21 16 12 11 18 18 14 11 10 15 5 4 10 7 4 3 3 10 6 4 11 13 10 15 11 4 18 13 19 19 23 25 29 28 22 14 19
36 38 37 36 31 36 35 29 30 28 22 20 15 13 16 14 7 8 7 10 14 12 7 10 5 1 3 8 9 8 14 13 17 15 14 13 5 13 17 22 25 30 25 25 14 6 15
44 41 44 42 39 34 39 38 33 30 28 21 17 15 16 14 4 7 1 12 15 18 8 13 10 9 6 8 8 6 14 18 14 13 13 15 12 12 17 22 27 29 19 30 30 25 15
51 49 46 48 45 42 37 41 39 34 30 26 20 14 13 13 3 11 7 3 19 13 10 21 12 8 5 7 9 3 6 7 7 9 16 11 5 13 20 19 25 22 34 27 17 14 14
48 56 54 51 51 48 45 41 42 39 36 28 23 17 10 8 7 6 10 4 19 4 9 13 11 6 4 8 6 6 7 7 11 10 8 10 12 17 18 23 22 21 27 15 12 18 15
51 57 60 60 56 54 51 47 45 42 39 35 27 21 13 10 8 6 1 14 13 11 8 11 9 7 10 4 3 10 4 5 6 7 12 11 7 6 15 29 14 28 27 10 13 15 3
68 58 53 61 64 60 57 54 50 46 42 37 32 27 20 13 9 6 9 10 11 13 7 14 9 6 6 4 7 5 5 10 10 9 3 9 7 3 12 26 6 31 27 5 5 7 14
61 66 74 61 65 68 63 59 54 51 46 40 34 31 27 22 20 12 11 11 18 6 10 7 9 9 9 3 6 3 5 3 6 11 11 7 7 8 16 11 15 16 14 5 5 10 12
62 68 64 72 66 71 72 66 60 53 50 42 35 30 32 27 22 17 17 18 17 7 13 18 10 13 12 9 7 7 3 2 5 12 11 7 0 6 7 9 15 18 13 7 4 9 10
59 63 70 64 74 64 80 75 66 57 51 41 30 18 25 30 25 18 16 27 7 7 11 17 15 12 12 14 10 6 4 7 5 4 13 5 9 7 5 5 7 8 6 5 3 8 10
61 61 51 64 59 78 75 85 72 63 53 41 25 15 24 35 29 20 22 34 9 17 16 14 13 12 10 10 9 6 4 10 5 6 9 9 6 11 5 3 11 3 3 6 7 4 9
64 65 57 63 53 38 69 87 76 69 57 47 26 13 23 40 25 28 28 24 7 23 16 7 7 12 16 14 10 7 5 2 8 2 7 7 9 9 4 7 2 6 7 11 9 12 7
67 65 60 61 55 52 44 60 77 77 72 42 22 27 24 40 18 26 24 13 18 20 20 18 18 14 8 14 10 10 8 7 10 5 5 3 7 10 15 9 7 8 2 7 11 8 14
63 61 63 57 53 52 41 49 79 90 79 60 30 14 17 35 42 28 37 30 20 27 19 15 13 16 16 13 8 11 11 8 9 7 2 3 12 15 14 13 9 18 17 12 12 9 16
63 60 60 55 55 53 52 35 72 86 84 82 42 32 34 20 37 32 32 25 38 20 18 30 15 23 21 13 14 11 14 11 11 10 7 7 11 13 22 23 22 27 25 23 26 24 13
60 60 59 58 57 53 57 57 54 64 85 82 48 28 34 39 55 49 34 41 42 36 32 24 25 34 28 16 16 19 23 16 10 15 11 8 9 12 24 13 9 19 19 20 24 24 24
60 62 62 61 63 61 53 59 59 44 102 83 65 45 29 40 32 36 49 48 46 36 33 31 38 22 31 28 15 14 11 8 4 11 15 8 7 9 7 4 16 22 7 22 24 14 18
55 58 60 62 64 62 58 55 53 71 59 70 97 45 27 25 30 36 39 50 43 50 30 38 31 31 18 34 32 22 16 8 9 12 9 8 10 6 9 17 8 8 5 4 17 12 17
51 54 59 61 65 64 63 59 55 66 47 44 81 84 60 28 37 42 39 32 54 35 40 36 30 34 44 41 12 10 7 8 9 4 13 16 10 8 7 8 22 2 9 8 13 9 18
51 52 56 59 61 63 62 58 60 50 45 43 74 95 81 35 44 58 35 41 24 27 25 20 16 39 51 11 14 19 14 12 12 12 4 13 15 10 5 6 6 11 11 8 3 13 8
50 50 53 57 60 59 58 60 57 57 48 52 70 74 60 41 65 48 31 41 45 32 23 26 33 22 25 17 15 15 18 4 17 19 15 12 12 22 17 9 12 7 18 12 8 6 6
49 49 51 52 53 60 60 58 57 50 44 46 62 78 92 50 54 84 42 44 55 55 25 32 22 16 16 19 16 12 13 17 15 18 18 19 18 11 13 12 14 28 16 10 10 9 11
48 47 46 50 51 55 57 57 53 46 40 44 38 54 98 55 35 57 59 39 47 65 41 57 23 44 28 17 15 10 8 10 19 13 17 14 14 9 18 9 10 41 2 21 9 12 13
Wind_Direction_500mb
249 224 234 235 239 231 241 257 286 302 321 325 332 324 329 331 331 327 317 300 274 260 230 195 176 140 129 183 79 307 1 2 360 354 354 355 340 331 286 315 293 252 291 303 290 284 277
265 227 214 232 237 241 234 251 276 303 315 320 326 323 335 337 332 323 316 300 269 244 213 191 176 204 309 207 188 323 340 346 351 345 341 347 343 326 290 299 287 337 301 292 285 283 290
275 257 225 227 240 248 253 252 264 288 303 315 314 329 343 339 326 326 326 308 263 224 191 185 165 122 252 76 227 312 333 323 330 330 328 321 311 313 328 302 310 296 287 276 4 328 303
264 271 262 235 239 258 267 262 269 276 291 305 314 342 339 336 335 340 334 319 203 174 173 182 199 205 358 240 288 344 332 316 327 322 321 302 297 294 297 302 258 271 254 340 15 330 8
259 257 268 266 254 256 272 276 268 272 280 294 314 337 337 333 341 346 352 106 163 164 180 167 178 241 139 284 310 310 331 317 304 294 301 291 281 281 273 279 274 202 337 341 327 305 293
275 262 255 268 271 264 258 273 278 270 272 285 309 334 333 336 349 352 71 135 139 150 153 169 213 241 201 292 297 325 328 331 290 282 256 266 255 261 337 355 347 324 327 324 318 350 341
272 270 266 259 272 272 266 261 266 273 278 280 299 326 333 340 356 358 124 112 165 181 203 294 87 326 37 315 261 295 328 322 287 257 332 274 281 7 341 338 323 308 306 303 347 20 326
274 269 266 266 259 271 271 266 267 265 265 276 291 312 327 334 334 355 178 227 226 168 180 190 174 152 265 341 255 234 345 321 315 297 304 222 263 4 316 307 311 313 315 339 304 214 303
277 269 267 264 265 258 268 272 268 264 268 265 278 298 318 325 284 343 253 227 186 161 226 192 219 259 273 306 280 295 349 325 311 286 333 294 18 332 315 316 340 325 346 326 303 313 243
273 271 267 265 261 262 255 263 270 266 262 267 273 278 305 323 325 330 310 242 178 174 232 159 201 199 240 285 227 260 344 323 252 318 322 283 21 312 322 324 344 306 359 322 289 290 347
263 268 267 264 261 258 257 252 258 264 265 260 267 273 280 285 233 325 291 179 159 171 259 138 152 188 230 254 334 175 339 264 302 328 282 69 327 329 310 347 330 312 324 323 305 285 324
270 263 262 262 260 256 254 253 249 253 260 263 263 262 263 273 252 270 237 150 153 230 230 151 150 185 227 222 206 312 317 288 266 275 217 286 315 288 324 315 294 300 309 216 277 265 255
266 269 265 256 257 256 252 249 251 247 247 255 261 264 255 237 214 234 158 150 219 246 145 157 174 195 241 192 187 315 350 37 18 306 41 264 172 7 325 322 189 354 352 5 333 3 26
271 266 262 267 250 253 250 247 245 250 241 241 249 259 258 244 229 213 171 219 248 5 179 101 155 165 221 192 175 270 237 176 99 328 284 321 194 4 9 4 326 333 334 36 298 352 330
274 269 267 262 263 251 247 243 240 241 247 234 235 249 257 248 227 206 214 218 250 179 138 161 152 209 181 198 277 241 296 72 50 5 343 326 289 120 23 336 342 353 13 358 299 209 264
270 273 267 264 259 261 245 240 236 233 236 237 224 230 235 238 212 193 235 237 204 136 139 177 218 217 201 178 217 225 193 105 146 2 327 57 282 125 40 262 195 326 331 264 130 335 324
262 269 270 267 270 256 255 235 230 228 226 224 216 215 223 212 191 206 229 230 187 185 172 195 218 186 225 185 232 211 122 135 193 157 307 312 265 139 189 179 345 247 353 343 270 351 331
266 266 272 265 254 251 245 233 224 224 219 211 211 220 207 183 196 216 229 216 187 178 183 176 232 228 203 180 197 219 225 36 134 233 294 45 312 281 8 99 227 308 337 325 329 345 303
263 263 266 271 275 263 247 242 226 219 216 195 209 208 193 173 213 212 217 195 206 176 192 183 189 196 183 188 204 211 190 95 152 223 323 51 202 279 158 169 177 240 319 294 305 267 276
259 259 259 262 271 270 263 246 245 215 214 199 220 194 183 206 228 239 207 210 198 202 195 190 163 162 167 188 185 177 205 158 191 222 276 290 265 266 296 340 311 285 289 238 287 274 341
260 261 257 253 260 261 261 270 226 235 209 200 219 221 198 196 211 213 225 205 199 178 210 187 184 199 179 178 181 203 204 152 185 181 211 251 263 266 278 280 277 279 273 265 243 255 280
258 261 258 253 252 259 258 260 256 209 237 197 198 223 213 226 202 204 211 213 205 185 169 194 222 197 193 185 193 187 175 194 200 181 198 199 279 289 288 253 246 262 259 246 243 253 260
258 255 254 256 251 250 262 258 262 247 210 202 216 217 225 214 208 197 212 210 202 186 204 195 201 184 199 204 165 123 156 138 160 187 201 219 274 299 272 212 282 265 270 230 230 231 231
261 258 255 254 252 248 247 259 255 260 225 206 208 205 210 228 203 213 210 214 210 200 184 192 186 190 165 144 115 103 106 139 201 204 242 226 239 275 285 300 236 87 89 351 218 242 226
264 258 255 257 254 247 242 248 252 259 265 256 205 206 208 225 212 217 213 203 211 202 213 176 193 191 157 147 151 163 167 180 183 215 228 228 226 270 268 289 290 161 171 218 214 242 217
264 262 258 254 255 245 243 239 247 251 260 243 225 207 198 219 224 211 213 198 198 193 193 152 145 155 158 160 186 203 197 196 166 155 171 201 242 252 205 271 265 91 144 156 222 260 150
264 263 261 255 250 244 244 239 241 244 256 242 225 224 192 200 225 218 202 199 196 179 182 154 150 170 184 187 192 202 214 189 168 179 169 168 196 219 230 253 273 150 147 156 228 65 153
264 263 261 256 249 243 243 241 240 242 248 243 243 235 218 205 222 231 226 196 204 196 179 157 142 188 179 199 196 189 223 194 214 167 173 171 174 193 209 220 251 145 138 219 102 116 153
264 263 262 256 251 246 242 239 238 238 247 234 257 230 222 215 221 208 218 220 210 199 177 172 207 160 181 180 193 183 189 163 197 198 197 207 204 193 200 221 127 179 72 190 176 168 173
Wind_Speed_850mb
10 9 11 12 13 11 9 8 8 9 11 13 14 17 18 19 20 19 15 12 10 8 9 8 7 4 5 4 9 4 9 14 14 14 17 18 15 12 15 15 15 18 16 23 27 28 31
15 11 12 13 14 14 11 9 7 9 11 12 14 16 18 21 20 15 15 12 11 9 10 12 6 6 3 5 3 4 9 12 12 13 15 14 12 15 18 19 16 19 27 30 24 21 25
18 16 15 15 15 16 15 11 9 9 11 13 13 14 19 22 19 15 16 13 9 9 12 14 9 4 6 6 2 6 12 11 16 12 14 10 10 13 21 19 10 23 20 21 3 12 20
15 20 18 15 14 16 19 15 12 10 11 12 15 16 20 22 14 17 14 6 6 11 11 13 12 4 3 7 4 8 10 12 15 10 11 8 9 12 11 20 20 15 14 16 18 8 7
17 17 21 21 18 16 20 23 16 15 12 11 13 16 20 22 15 17 8 4 8 10 12 9 7 6 7 4 4 12 12 12 13 9 8 7 6 11 15 18 21 13 25 24 15 4 10
26 23 22 27 26 22 20 24 25 19 15 14 11 14 20 21 15 15 5 8 9 7 9 4 8 10 5 4 10 7 9 15 8 12 15 9 11 18 6 19 19 30 30 25 23 19 23
31 32 30 27 32 30 27 24 26 24 21 16 12 11 18 18 14 11 10 15 5 4 10 7 4 3 3 10 6 4 11 13 10 15 11 4 18 13 19 19 23 25 29 28 22 14 19
36 38 37 36 31 36 35 29 30 28 22 20 15 13 16 14 7 8 7 10 14 12 7 10 5 1 3 8 9 8 14 13 17 15 14 13 5 13 17 22 25 30 25 25 14 6 15
44 41 44 42 39 34 39 38 33 30 28 21 17 15 16 14 4 7 1 12 15 18 8 13 10 9 6 8 8 6 14 18 14 13 13 15 12 12 17 22 27 29 19 30 30 25 15
51 49 46 48 45 42 37 41 39 34 30 26 20 14 13 13 3 11 7 3 19 13 10 21 12 8 5 7 9 3 6 7 7 9 16 11 5 13 20 19 25 22 34 27 17 14 14
48 56 54 51 51 48 45 41 42 39 36 28 23 17 10 8 7 6 10 4 19 4 9 13 11 6 4 8 6 6 7 7 11 10 8 10 12 17 18 23 22 21 27 15 12 18 15
51 57 60 60 56 54 51 47 45 42 39 35 27 21 13 10 8 6 1 14 13 11 8 11 9 7 10 4 3 10 4 5 6 7 12 11 7 6 15 29 14 28 27 10 13 15 3
68 58 53 61 64 60 57 54 50 46 42 37 32 27 20 13 9 6 9 10 11 13 7 14 9 6 6 4 7 5 5 10 10 9 3 9 7 3 12 26 6 31 27 5 5 7 14
61 66 74 61 65 68 63 59 54 51 46 40 34 31 27 22 20 12 11 11 18 6 10 7 9 9 9 3 6 3 5 3 6 11 11 7 7 8 16 11 15 16 14 5 5 10 12
62 68 64 72 66 71 72 66 60 53 50 42 35 30 32 27 22 17 17 18 17 7 13 18 10 13 12 9 7 7 3 2 5 12 11 7 0 6 7 9 15 18 13 7 4 9 10
59 63 70 64 74 64 80 75 66 57 51 41 30 18 25 30 25 18 16 27 7 7 11 17 15 12 12 14 10 6 4 7 5 4 13 5 9 7 5 5 7 8 6 5 3 8 10
61 61 51 64 59 78 75 85 72 63 53 41 25 15 24 35 29 20 22 34 9 17 16 14 13 12 10 10 9 6 4 10 5 6 9 9 6 11 5 3 11 3 3 6 7 4 9
64 65 57 63 53 38 69 87 76 69 57 47 26 13 23 40 25 28 28 24 7 23 16 7 7 12 16 14 10 7 5 2 8 2 7 7 9 9 4 7 2 6 7 11 9 12 7
67 65 60 61 55 52 44 60 77 77 72 42 22 27 24 40 18 26 24 13 18 20 20 18 18 14 8 14 10 10 8 7 10 5 5 3 7 10 15 9 7 8 2 7 11 8 14
63 61 63 57 53 52 41 49 79 90 79 60 30 14 17 35 42 28 37 30 20 27 19 15 13 16 16 13 8 11 11 8 9 7 2 3 12 15 14 13 9 18 17 12 12 9 16
63 60 60 55 55 53 52 35 72 86 84 82 42 32 34 20 37 32 32 25 38 20 18 30 15 23 21 13 14 11 14 11 11 10 7 7 11 13 22 23 22 27 25 23 26 24 13
60 60 59 58 57 53 57 57 54 64 85 82 48 28 34 39 55 49 34 41 42 36 32 24 25 34 28 16 16 19 23 16 10 15 11 8 9 12 24 13 9 19 19 20 24 24 24
60 62 62 61 63 61 53 59 59 44 102 83 65 45 29 40 32 36 49 48 46 36 33 31 38 22 31 28 15 14 11 8 4 11 15 8 7 9 7 4 16 22 7 22 24 14 18
55 58 60 62 64 62 58 55 53 71 59 70 97 45 27 25 30 36 39 50 43 50 30 38 31 31 18 34 32 22 16 8 9 12 9 8 10 6 9 17 8 8 5 4 17 12 17
51 54 59 61 65 64 63 59 55 66 47 44 81 84 60 28 37 42 39 32 54 35 40 36 30 34 44 41 12 10 7 8 9 4 13 16 10 8 7 8 22 2 9 8 13 9 18
51 52 56 59 61 63 62 58 60 50 45 43 74 95 81 35 44 58 35 41 24 27 25 20 16 39 51 11 14 19 14 12 12 12 4 13 15 10 5 6 6 11 11 8 3 13 8
50 50 53 57 60 59 58 60 57 57 48 52 70 74 60 41 65 48 31 41 45 32 23 26 33 22 25 17 15 15 18 4 17 19 15 12 12 22 17 9 12 7 18 12 8 6 6
49 49 51 52 53 60 60 58 57 50 44 46 62 78 92 50 54 84 42 44 55 55 25 32 22 16 16 19 16 12 13 17 15 18 18 19 18 11 13 12 14 28 16 10 10 9 11
48 47 46 50 51 55 57 57 53 46 40 44 38 54 98 55 35 57 59 39 47 65 41 57 23 44 28 17 15 10 8 10 19 13 17 14 14 9 18 9 10 41 2 21 9 12 13
Wind_Direction_850mb
249 224 234 235 239 231 241 257 286 302 321 325 332 324 329 331 331 327 317 300 274 260 230 195 176 140 129 183 79 307 1 2 360 354 354 355 340 331 286 315 293 252 291 303 290 284 277
265 227 214 232 237 241 234 251 276 303 315 320 326 323 335 337 332 323 316 300 269 244 213 191 176 204 309 207 188 323 340 346 351 345 341 347 343 326 290 299 287 337 301 292 285 283 290
275 257 225 227 240 248 253 252 264 288 303 315 314 329 343 339 326 326 326 308 263 224 191 185 165 122 252 76 227 312 333 323 330 330 328 321 311 313 328 302 310 296 287 276 4 328 303
264 271 262 235 239 258 267 262 269 276 291 305 314 342 339 336 335 340 334 319 203 174 173 182 199 205 358 240 288 344 332 316 327 322 321 302 297 294 297 302 258 271 254 340 15 330 8
259 257 268 266 254 256 272 276 268 272 280 294 314 337 337 333 341 346 352 106 163 164 180 167 178 241 139 284 310 310 331 317 304 294 301 291 281 281 273 279 274 202 337 341 327 305 293
275 262 255 268 271 264 258 273 278 270 272 285 309 334 333 336 349 352 71 135 139 150 153 169 213 241 201 292 297 325 328 331 290 282 256 266 255 261 337 355 347 324 327 324 318 350 341
272 270 266 259 272 272 266 261 266 273 278 280 299 326 333 340 356 358 124 112 165 181 203 294 87 326 37 315 261 295 328 322 287 257 332 274 281 7 341 338 323 308 306 303 347 20 326
274 269 266 266 259 271 271 266 267 265 265 276 291 312 327 334 334 355 178 227 226 168 180 190 174 152 265 341 255 234 345 321 315 297 304 222 263 4 316 307 311 313 315 339 304 214 303
277 269 267 264 265 258 268 272 268 264 268 265 278 298 318 325 284 343 253 227 186 161 226 192 219 259 273 306 280 295 349 325 311 286 333 294 18 332 315 316 340 325 346 326 303 313 243
273 271 267 265 261 262 255 263 270 266 262 267 273 278 305 323 325 330 310 242 178 174 232 159 201 199 240 285 227 260 344 323 252 318 322 283 21 312 322 324 344 306 359 322 289 290 347
263 268 267 264 261 258 257 252 258 264 265 260 267 273 280 285 233 325 291 179 159 171 259 138 152 188 230 254 334 175 339 264 302 328 282 69 327 329 310 347 330 312 324 323 305 285 324
270 263 262 262 260 256 254 253 249 253 260 263 263 262 263 273 252 270 237 150 153 230 230 151 150 185 227 222 206 312 317 288 266 275 217 286 315 288 324 315 294 300 309 216 277 265 255
266 269 265 256 257 256 252 249 251 247 247 255 261 264 255 237 214 234 158 150 219 246 145 157 174 195 241 192 187 315 350 37 18 306 41 264 172 7 325 322 189 354 352 5 333 3 26
271 266 262 267 250 253 250 247 245 250 241 241 249 259 258 244 229 213 171 219 248 5 179 101 155 165 221 192 175 270 237 176 99 328 284 321 194 4 9 4 326 333 334 36 298 352 330
274 269 267 262 263 251 247 243 240 241 247 234 235 249 257 248 227 206 214 218 250 179 138 161 152 209 181 198 277 241 296 72 50 5 343 326 289 120 23 336 342 353 13 358 299 209 264
270 273 267 264 259 261 245 240 236 233 236 237 224 230 235 238 212 193 235 237 204 136 139 177 218 217 201 178 217 225 193 105 146 2 327 57 282 125 40 262 195 326 331 264 130 335 324
262 269 270 267 270 256 255 235 230 228 226 224 216 215 223 212 191 206 229 230 187 185 172 195 218 186 225 185 232 211 122 135 193 157 307 312 265 139 189 179 345 247 353 343 270 351 331
266 266 272 265 254 251 245 233 224 224 219 211 211 220 207 183 196 216 229 216 187 178 183 176 232 228 203 180 197 219 225 36 134 233 294 45 312 281 8 99 227 308 337 325 329 345 303
263 263 266 271 275 263 247 242 226 219 216 195 209 208 193 173 213 212 217 195 206 176 192 183 189 196 183 188 204 211 190 95 152 223 323 51 202 279 158 169 177 240 319 294 305 267 276
259 259 259 262 271 270 263 246 245 215 214 199 220 194 183 206 228 239 207 210 198 202 195 190 163 162 167 188 185 177 205 158 191 222 276 290 265 266 296 340 311 285 289 238 287 274 341
260 261 257 253 260 261 261 270 226 235 209 200 219 221 198 196 211 213 225 205 199 178 210 187 184 199 179 178 181 203 204 152 185 181 211 251 263 266 278 280 277 279 273 265 243 255 280
258 261 258 253 252 259 258 260 256 209 237 197 198 223 213 226 202 204 211 213 205 185 169 194 222 197 193 185 193 187 175 194 200 181 198 199 279 289 288 253 246 262 259 246 243 253 260
258 255 254 256 251 250 262 258 262 247 210 202 216 217 225 214 208 197 212 210 202 186 204 195 201 184 199 204 165 123 156 138 160 187 201 219 274 299 272 212 282 265 270 230 230 231 231
261 258 255 254 252 248 247 259 255 260 225 206 208 205 210 228 203 213 210 214 210 200 184 192 186 190 165 144 115 103 106 139 201 204 242 226 239 275 285 300 236 87 89 351 218 242 226
264 258 255 257 254 247 242 248 252 259 265 256 205 206 208 225 212 217 213 203 211 202 213 176 193 191 157 147 151 163 167 180 183 215 228 228 226 270 268 289 290 161 171 218 214 242 217
264 262 258 254 255 245 243 239 247 251 260 243 225 207 198 219 224 211 213 198 198 193 193 152 145 155 158 160 186 203 197 196 166 155 171 201 242 252 205 271 265 91 144 156 222 260 150
264 263 261 255 250 244 244 239 241 244 256 242 225 224 192 200 225 218 202 199 196 179 182 154 150 170 184 187 192 202 214 189 168 179 169 168 196 219 230 253 273 150 147 156 228 65 153
264 263 261 256 249 243 243 241 240 242 248 243 243 235 218 205 222 231 226 196 204 196 179 157 142 188 179 199 196 189 223 194 214 167 173 171 174 193 209 220 251 145 138 219 102 116 153
264 263 262 256 251 246 242 239 238 238 247 234 257 230 222 215 221 208 218 220 210 199 177 172 207 160 181 180 193 183 189 163 197 198 197 207 204 193 200 221 127 179 72 190 176 168 173